Location: Unspecified
(49.9820°N, 20.4363°E)
Time: 03:36:42
(UTC+02:00)

Vanguard 3 - Pass Details

Date: 16 May 2026
Orbit: 507 x 3204 km, 33.3° (Epoch: 6 June)

Event Time Altitude Azimuth Distance (km) Brightness Sun altitude
Rises 13:04:19 0° 216° (SW) 6,408 12.2 58.6°
Reaches altitude 10° 13:08:55 10° 207° (SSW) 5,677 12.1 58.4°
Maximum altitude 13:23:58 33° 152° (SSE) 4,466 11.8 57.7°
Drops below altitude 10° 13:39:13 10° 98° (E) 5,792 11.5 56.6°
Sets 13:43:56 0° 90° (E) 6,553 11.6 56.2°
